Regional Weather Roundup
Issued by NWS

Home | Current Version | Previous Version | Graphics & Text | Print | Product List | Glossary On
Versions: 1 2 3 4 5 6 7 8 9 10 11 12 13 14 15 16 17 18 19 20 21 22 23 24 25 26 27 28
000
ASUS45 KSLC 090010
RWRUT

UTAH REGIONAL WEATHER ROUNDUP
NATIONAL WEATHER SERVICE SALT LAKE CITY UT
500 PM MST THU DEC 08 2016

UTZ001>011-023>025-090100-

NORTHERN UTAH

CITY           SKY/WX    TMP DP  RH WIND       PRES   REMARKS
BRIGHAM CITY     N/A     22  19  85 N7        30.18F WCI  14
DUGWAY         MOCLDY    33  13  44 SE5       30.15S WCI  28
HILL AFB       MOCLDY    22  20  92 CALM      30.13F
LOGAN          LGT SNOW  19  18  95 CALM      30.17F VSB 3/4
OGDEN          CLOUDY    24  21  88 N7        30.14F WCI  16
SALT LAKE CITY CLOUDY    26  22  84 NW10      30.15S WCI  16
WENDOVER       PTCLDY    23  16  74 N3        30.17S
HEBER CITY     CLOUDY    27  21  80 CALM      30.12S

$$

UTZ011>015-024>027-090100-

CENTRAL/NORTHEAST UTAH

CITY           SKY/WX    TMP DP  RH WIND       PRES   REMARKS
PROVO AIRPORT  CLOUDY    30  22  72 NW3       30.17F
MOAB/CANYONLAN CLOUDY    33   4  29 NE3       30.25F
DELTA          CLOUDY    32  10  40 NE5       30.14S WCI  27
PRICE          CLOUDY    25   4  40 CALM      30.23S
RICHFIELD      CLOUDY    30  10  43 N8        30.18R WCI  23
ROOSEVELT      CLOUDY    25  14  63 NW5       30.26S WCI  19
VERNAL         CLOUDY    24   3  40 SW3       30.22S

$$

UTZ013>016-019>022-027-090100-

SOUTHERN UTAH

CITY           SKY/WX    TMP DP  RH WIND       PRES   REMARKS
BRYCE CANYON   PTCLDY    27  11  51 S3        30.21R
CEDAR CITY     PTCLDY    42  21  43 S10       30.17R
MILFORD        MOCLDY    42  16  34 S20G26    30.14R
ST GEORGE      MOCLDY    48  14  25 S6        30.23S
HANKSVILLE     CLEAR     32   5  32 NE9       30.28R WCI  24
KANAB          CLEAR     45  21  39 CALM      30.25R
BLANDING       CLEAR     33   6  32 CALM      30.34S

$$

REGIONAL REPORTS     COLORADO/ARIZONA

CITY           SKY/WX    TMP DP  RH WIND       PRES   REMARKS
CRAIG, CO      CLOUDY    19  12  74 E8        30.21S WCI   9
GRAND JUNCTION CLOUDY    29   8  41 W3        30.26S
RIFLE, CO      CLOUDY    23   6  48 CALM      30.26S
MONTROSE, CO   CLOUDY    28   9  44 W3        30.26S
CORTEZ, CO     CLOUDY    36  15  42 S5        30.27S WCI  32
COLORADO CITY    N/A     46  23  39 CALM      30.23S
PAGE, AZ       CLEAR     40   4  22 E3        30.24S
GRAND CANYON   CLEAR     43  22  43 SW9       30.25R
KINGMAN, AZ    CLEAR     52  18  26 SW9       30.21R
FLAGSTAFF, AZ  CLEAR     39  24  55 SW8       30.26R WCI  33

$$

REGIONAL REPORTS    NEVADA/IDAHO/WYOMING

CITY           SKY/WX    TMP DP  RH WIND       PRES   REMARKS
LAS VEGAS, NV  MOCLDY    52   6  15 CALM      30.21S
ELY, NY        CLOUDY    37  15  40 E3        30.14R
ELKO, NV       MIX PCPN  29  24  82 CALM      30.08R
POCATELLO, ID  LGT SNOW  20  17  88 NE6       30.13F WCI  12
BURLEY, ID     SNOW      19  17  92 NE13      30.09S VSB 1/2 WCI   6
FORT BRIDGER,  LGT SNOW   7   3  85 CALM      30.14S
EVANSTON, WY   LGT SNOW   9   3  77 E12       30.07S WCI  -6
ROCK SPRINGS,  LGT SNOW   9   5  84 CALM      30.12S FOG

$$




USA.gov is the U.S. government's official web portal to all federal, state and local government web resources and services.